Year,Month,Day,Hour,Minute,Value (Times are PST for temperature in C)
2010,07,11,00,00,13.70
2010,07,11,00,01,13.70
2010,07,11,00,02,13.70
2010,07,11,00,03,13.70
2010,07,11,00,04,13.70
2010,07,11,00,05,13.70
2010,07,11,00,06,13.70
2010,07,11,00,07,13.70
2010,07,11,00,08,13.60
2010,07,11,00,09,13.60
2010,07,11,00,10,13.60
2010,07,11,00,11,13.60
2010,07,11,00,12,13.60
2010,07,11,00,13,13.50
2010,07,11,00,14,13.50
2010,07,11,00,15,13.50
2010,07,11,00,16,13.50
2010,07,11,00,17,13.50
2010,07,11,00,18,13.50
2010,07,11,00,19,13.50
2010,07,11,00,20,13.50
2010,07,11,00,21,13.50
2010,07,11,00,22,13.40
2010,07,11,00,23,13.40
2010,07,11,00,24,13.40
2010,07,11,00,25,13.40
2010,07,11,00,26,13.40
2010,07,11,00,27,13.40
2010,07,11,00,28,13.40
2010,07,11,00,29,13.40
2010,07,11,00,30,13.40
2010,07,11,00,31,13.40
2010,07,11,00,32,13.40
2010,07,11,00,33,13.40
2010,07,11,00,34,13.40
2010,07,11,00,35,13.40
2010,07,11,00,36,13.40
2010,07,11,00,37,13.40
2010,07,11,00,38,13.40
2010,07,11,00,39,13.40
2010,07,11,00,40,13.40
2010,07,11,00,41,13.40
2010,07,11,00,42,13.40
2010,07,11,00,43,13.40
2010,07,11,00,44,13.40
2010,07,11,00,45,13.40
2010,07,11,00,46,13.40
2010,07,11,00,47,13.30
2010,07,11,00,48,13.30
2010,07,11,00,49,13.30
2010,07,11,00,50,13.30
2010,07,11,00,51,13.30
2010,07,11,00,52,13.30
2010,07,11,00,53,13.30
2010,07,11,00,54,13.30
2010,07,11,00,55,13.30
2010,07,11,00,56,13.30
2010,07,11,00,57,13.30
2010,07,11,00,58,13.30
2010,07,11,00,59,13.30
2010,07,11,01,00,13.30
2010,07,11,01,01,13.30
2010,07,11,01,02,13.30
2010,07,11,01,03,13.30
2010,07,11,01,04,13.30
2010,07,11,01,05,13.30
2010,07,11,01,06,13.30
2010,07,11,01,07,13.30
2010,07,11,01,08,13.30
2010,07,11,01,09,13.30
2010,07,11,01,10,13.30
2010,07,11,01,11,13.40
2010,07,11,01,12,13.40
2010,07,11,01,13,13.40
2010,07,11,01,14,13.40
2010,07,11,01,15,13.40
2010,07,11,01,16,13.40
2010,07,11,01,17,13.40
2010,07,11,01,18,13.40
2010,07,11,01,19,13.40
2010,07,11,01,20,13.40
2010,07,11,01,21,13.40
2010,07,11,01,22,13.40
2010,07,11,01,23,13.40
2010,07,11,01,24,13.40
2010,07,11,01,25,13.40
2010,07,11,01,26,13.40
2010,07,11,01,27,13.40
2010,07,11,01,28,13.40
2010,07,11,01,29,13.40
2010,07,11,01,30,13.40
2010,07,11,01,31,13.40
2010,07,11,01,32,13.40
2010,07,11,01,33,13.40
2010,07,11,01,34,13.40
2010,07,11,01,35,13.40
2010,07,11,01,36,13.40
2010,07,11,01,37,13.40
2010,07,11,01,38,13.40
2010,07,11,01,39,13.40
2010,07,11,01,40,13.40
2010,07,11,01,41,13.40
2010,07,11,01,42,13.40
2010,07,11,01,43,13.40
2010,07,11,01,44,13.40
2010,07,11,01,45,13.40
2010,07,11,01,46,13.40
2010,07,11,01,47,13.40
2010,07,11,01,48,13.40
2010,07,11,01,49,13.40
2010,07,11,01,50,13.40
2010,07,11,01,51,13.40
2010,07,11,01,52,13.40
2010,07,11,01,53,13.40
2010,07,11,01,54,13.40
2010,07,11,01,55,13.40
2010,07,11,01,56,13.40
2010,07,11,01,57,13.40
2010,07,11,01,58,13.40
2010,07,11,01,59,13.40
2010,07,11,02,00,13.40
2010,07,11,02,01,13.40
2010,07,11,02,02,13.40
2010,07,11,02,03,13.40
2010,07,11,02,04,13.40
2010,07,11,02,05,13.40
2010,07,11,02,06,13.40
2010,07,11,02,07,13.40
2010,07,11,02,08,13.40
2010,07,11,02,09,13.40
2010,07,11,02,10,13.40
2010,07,11,02,11,13.40
2010,07,11,02,12,13.50
2010,07,11,02,13,13.50
2010,07,11,02,14,13.50
2010,07,11,02,15,13.50
2010,07,11,02,16,13.50
2010,07,11,02,17,13.40
2010,07,11,02,18,13.40
2010,07,11,02,19,13.40
2010,07,11,02,20,13.40
2010,07,11,02,21,13.40
2010,07,11,02,22,13.40
2010,07,11,02,23,13.40
2010,07,11,02,24,13.40
2010,07,11,02,25,13.40
2010,07,11,02,26,13.40
2010,07,11,02,27,13.40
2010,07,11,02,28,13.40
2010,07,11,02,29,13.40
2010,07,11,02,30,13.50
2010,07,11,02,31,13.50
2010,07,11,02,32,13.50
2010,07,11,02,33,13.50
2010,07,11,02,34,13.50
2010,07,11,02,35,13.50
2010,07,11,02,36,13.50
2010,07,11,02,37,13.60
2010,07,11,02,38,13.60
2010,07,11,02,39,13.60
2010,07,11,02,40,13.60
2010,07,11,02,41,13.70
2010,07,11,02,42,13.70
2010,07,11,02,43,13.70
2010,07,11,02,44,13.70
2010,07,11,02,45,13.70
2010,07,11,02,46,13.70
2010,07,11,02,47,13.80
2010,07,11,02,48,13.80
2010,07,11,02,49,13.80
2010,07,11,02,50,13.80
2010,07,11,02,51,13.80
2010,07,11,02,52,13.80
2010,07,11,02,53,13.80
2010,07,11,02,54,13.80
2010,07,11,02,55,13.80
2010,07,11,02,56,13.80
2010,07,11,02,57,13.80
2010,07,11,02,58,13.80
2010,07,11,02,59,13.80
2010,07,11,03,00,13.80
2010,07,11,03,01,13.80
2010,07,11,03,02,13.80
2010,07,11,03,03,13.80
2010,07,11,03,04,13.80
2010,07,11,03,05,13.80
2010,07,11,03,06,13.80
2010,07,11,03,07,13.80
2010,07,11,03,08,13.80
2010,07,11,03,09,13.80
2010,07,11,03,10,13.80
2010,07,11,03,11,13.80
2010,07,11,03,12,13.80
2010,07,11,03,13,13.80
2010,07,11,03,14,13.80
2010,07,11,03,15,13.90
2010,07,11,03,16,13.90
2010,07,11,03,17,14.00
2010,07,11,03,18,14.00
2010,07,11,03,19,14.00
2010,07,11,03,20,14.00
2010,07,11,03,21,14.10
2010,07,11,03,22,14.10
2010,07,11,03,23,14.10
2010,07,11,03,24,14.10
2010,07,11,03,25,14.10
2010,07,11,03,26,14.20
2010,07,11,03,27,14.20
2010,07,11,03,28,14.20
2010,07,11,03,29,14.20
2010,07,11,03,30,14.20
2010,07,11,03,31,14.20
2010,07,11,03,32,14.20
2010,07,11,03,33,14.20
2010,07,11,03,34,14.30
2010,07,11,03,35,14.30
2010,07,11,03,36,14.30
2010,07,11,03,37,14.30
2010,07,11,03,38,14.30
2010,07,11,03,39,14.30
2010,07,11,03,40,14.30
2010,07,11,03,41,14.30
2010,07,11,03,42,14.30
2010,07,11,03,43,14.30
2010,07,11,03,44,14.30
2010,07,11,03,45,14.40
2010,07,11,03,46,14.40
2010,07,11,03,47,14.40
2010,07,11,03,48,14.40
2010,07,11,03,49,14.40
2010,07,11,03,50,14.40
2010,07,11,03,51,14.40
2010,07,11,03,52,14.50
2010,07,11,03,53,14.50
2010,07,11,03,54,14.50
2010,07,11,03,55,14.50
2010,07,11,03,56,14.50
2010,07,11,03,57,14.50
2010,07,11,03,58,14.50
2010,07,11,03,59,14.50
2010,07,11,04,00,14.50
2010,07,11,04,01,14.50
2010,07,11,04,02,14.50
2010,07,11,04,03,14.50
2010,07,11,04,04,14.50
2010,07,11,04,05,14.50
2010,07,11,04,06,14.60
2010,07,11,04,07,14.60
2010,07,11,04,08,14.60
2010,07,11,04,09,14.60
2010,07,11,04,10,14.60
2010,07,11,04,11,14.60
2010,07,11,04,12,14.60
2010,07,11,04,13,14.60
2010,07,11,04,14,14.60
2010,07,11,04,15,14.60
2010,07,11,04,16,14.60
2010,07,11,04,17,14.60
2010,07,11,04,18,14.60
2010,07,11,04,19,14.60
2010,07,11,04,20,14.60
2010,07,11,04,21,14.60
2010,07,11,04,22,14.60
2010,07,11,04,23,14.60
2010,07,11,04,24,14.60
2010,07,11,04,25,14.60
2010,07,11,04,26,14.60
2010,07,11,04,27,14.60
2010,07,11,04,28,14.60
2010,07,11,04,29,14.60
2010,07,11,04,30,14.70
2010,07,11,04,31,14.70
2010,07,11,04,32,14.70
2010,07,11,04,33,14.70
2010,07,11,04,34,14.70
2010,07,11,04,35,14.70
2010,07,11,04,36,14.70
2010,07,11,04,37,14.70
2010,07,11,04,38,14.70
2010,07,11,04,39,14.70
2010,07,11,04,40,14.70
2010,07,11,04,41,14.70
2010,07,11,04,42,14.70
2010,07,11,04,43,14.70
2010,07,11,04,44,14.70
2010,07,11,04,45,14.70
2010,07,11,04,46,14.60
2010,07,11,04,47,14.60
2010,07,11,04,48,14.60
2010,07,11,04,49,14.60
2010,07,11,04,50,14.60
2010,07,11,04,51,14.50
2010,07,11,04,52,14.50
2010,07,11,04,53,14.50
2010,07,11,04,54,14.50
2010,07,11,04,55,14.50
2010,07,11,04,56,14.50
2010,07,11,04,57,14.50
2010,07,11,04,58,14.50
2010,07,11,04,59,14.40
2010,07,11,05,00,14.40
2010,07,11,05,01,14.40
2010,07,11,05,02,14.40
2010,07,11,05,03,14.40
2010,07,11,05,04,14.30
2010,07,11,05,05,14.30
2010,07,11,05,06,14.30
2010,07,11,05,07,14.30
2010,07,11,05,08,14.30
2010,07,11,05,09,14.30
2010,07,11,05,10,14.30
2010,07,11,05,11,14.30
2010,07,11,05,12,14.30
2010,07,11,05,13,14.30
2010,07,11,05,14,14.30
2010,07,11,05,15,14.30
2010,07,11,05,16,14.30
2010,07,11,05,17,14.30
2010,07,11,05,18,14.30
2010,07,11,05,19,14.30
2010,07,11,05,20,14.30
2010,07,11,05,21,14.30
2010,07,11,05,22,14.30
2010,07,11,05,23,14.30
2010,07,11,05,24,14.40
2010,07,11,05,25,14.40
2010,07,11,05,26,14.40
2010,07,11,05,27,14.50
2010,07,11,05,28,14.50
2010,07,11,05,29,14.60
2010,07,11,05,30,14.60
2010,07,11,05,31,14.60
2010,07,11,05,32,14.70
2010,07,11,05,33,14.70
2010,07,11,05,34,14.70
2010,07,11,05,35,14.80
2010,07,11,05,36,14.80
2010,07,11,05,37,14.80
2010,07,11,05,38,14.80
2010,07,11,05,39,14.80
2010,07,11,05,40,14.80
2010,07,11,05,41,14.80
2010,07,11,05,42,14.80
2010,07,11,05,43,14.80
2010,07,11,05,44,14.80
2010,07,11,05,45,14.80
2010,07,11,05,46,14.80
2010,07,11,05,47,14.80
2010,07,11,05,48,14.80
2010,07,11,05,49,14.80
2010,07,11,05,50,14.80
2010,07,11,05,51,14.80
2010,07,11,05,52,14.80
2010,07,11,05,53,14.80
2010,07,11,05,54,14.80
2010,07,11,05,55,14.80
2010,07,11,05,56,14.90
2010,07,11,05,57,14.90
2010,07,11,05,58,15.00
2010,07,11,05,59,15.00
2010,07,11,06,00,15.00
2010,07,11,06,01,15.00
2010,07,11,06,02,15.00
2010,07,11,06,03,15.00
2010,07,11,06,04,15.10
2010,07,11,06,05,15.10
2010,07,11,06,06,15.10
2010,07,11,06,07,15.00
2010,07,11,06,08,15.00
2010,07,11,06,09,15.00
2010,07,11,06,10,15.00
2010,07,11,06,11,14.90
2010,07,11,06,12,14.90
2010,07,11,06,13,14.90
2010,07,11,06,14,14.90
2010,07,11,06,15,14.90
2010,07,11,06,16,14.90
2010,07,11,06,17,14.80
2010,07,11,06,18,14.80
2010,07,11,06,19,14.80
2010,07,11,06,20,14.80
2010,07,11,06,21,14.80
2010,07,11,06,22,14.80
2010,07,11,06,23,14.80
2010,07,11,06,24,14.80
2010,07,11,06,25,14.80
2010,07,11,06,26,14.80
2010,07,11,06,27,14.80
2010,07,11,06,28,14.80
2010,07,11,06,29,14.80
2010,07,11,06,30,14.80
2010,07,11,06,31,14.80
2010,07,11,06,32,14.80
2010,07,11,06,33,14.80
2010,07,11,06,34,14.80
2010,07,11,06,35,14.80
2010,07,11,06,36,14.80
2010,07,11,06,37,14.80
2010,07,11,06,38,14.80
2010,07,11,06,39,14.80
2010,07,11,06,40,14.80
2010,07,11,06,41,14.80
2010,07,11,06,42,14.80
2010,07,11,06,43,14.80
2010,07,11,06,44,14.80
2010,07,11,06,45,14.80
2010,07,11,06,46,14.80
2010,07,11,06,47,14.80
2010,07,11,06,48,14.80
2010,07,11,06,49,14.80
2010,07,11,06,50,14.70
2010,07,11,06,51,14.70
2010,07,11,06,52,14.70
2010,07,11,06,53,14.70
2010,07,11,06,54,14.70
2010,07,11,06,55,14.70
2010,07,11,06,56,14.70
2010,07,11,06,57,14.70
2010,07,11,06,58,14.70
2010,07,11,06,59,14.70
2010,07,11,07,00,14.70
2010,07,11,07,01,14.70
2010,07,11,07,02,14.70
2010,07,11,07,03,14.60
2010,07,11,07,04,14.60
2010,07,11,07,05,14.60
2010,07,11,07,06,14.60
2010,07,11,07,07,14.70
2010,07,11,07,08,14.70
2010,07,11,07,09,14.70
2010,07,11,07,10,14.70
2010,07,11,07,11,14.70
2010,07,11,07,12,14.80
2010,07,11,07,13,14.80
2010,07,11,07,14,14.80
2010,07,11,07,15,14.80
2010,07,11,07,16,14.80
2010,07,11,07,17,14.80
2010,07,11,07,18,14.80
2010,07,11,07,19,14.80
2010,07,11,07,20,14.80
2010,07,11,07,21,14.80
2010,07,11,07,22,14.90
2010,07,11,07,23,14.90
2010,07,11,07,24,14.90
2010,07,11,07,25,14.90
2010,07,11,07,26,15.00
2010,07,11,07,27,15.00
2010,07,11,07,28,15.10
2010,07,11,07,29,15.10
2010,07,11,07,30,15.10
2010,07,11,07,31,15.20
2010,07,11,07,32,15.20
2010,07,11,07,33,15.30
2010,07,11,07,34,15.30
2010,07,11,07,35,15.30
2010,07,11,07,36,15.30
2010,07,11,07,37,15.30
2010,07,11,07,38,15.30
2010,07,11,07,39,15.30
2010,07,11,07,40,15.30
2010,07,11,07,41,15.30
2010,07,11,07,42,15.30
2010,07,11,07,43,15.30
2010,07,11,07,44,15.40
2010,07,11,07,45,15.40
2010,07,11,07,46,15.30
2010,07,11,07,47,15.30
2010,07,11,07,48,15.40
2010,07,11,07,49,15.40
2010,07,11,07,50,15.40
2010,07,11,07,51,15.50
2010,07,11,07,52,15.50
2010,07,11,07,53,15.50
2010,07,11,07,54,15.50
2010,07,11,07,55,15.60
2010,07,11,07,56,15.60
2010,07,11,07,57,15.60
2010,07,11,07,58,15.60
2010,07,11,07,59,15.60
2010,07,11,08,00,15.70
2010,07,11,08,01,15.70
2010,07,11,08,02,15.70
2010,07,11,08,03,15.80
2010,07,11,08,04,15.80
2010,07,11,08,05,15.80
2010,07,11,08,06,15.80
2010,07,11,08,07,15.80
2010,07,11,08,08,15.80
2010,07,11,08,09,15.80
2010,07,11,08,10,15.80
2010,07,11,08,11,15.80
2010,07,11,08,12,15.80
2010,07,11,08,13,15.80
2010,07,11,08,14,15.80
2010,07,11,08,15,15.80
2010,07,11,08,16,15.80
2010,07,11,08,17,15.80
2010,07,11,08,18,15.80
2010,07,11,08,19,15.80
2010,07,11,08,20,15.80
2010,07,11,08,21,15.80
2010,07,11,08,22,15.80
2010,07,11,08,23,15.80
2010,07,11,08,24,15.90
2010,07,11,08,25,15.90
2010,07,11,08,26,16.10
2010,07,11,08,27,16.10
2010,07,11,08,28,16.10
2010,07,11,08,29,16.20
2010,07,11,08,30,16.30
2010,07,11,08,31,16.40
2010,07,11,08,32,16.50
2010,07,11,08,33,16.60
2010,07,11,08,34,16.70
2010,07,11,08,35,16.70
2010,07,11,08,36,16.80
2010,07,11,08,37,16.90
2010,07,11,08,38,16.90
2010,07,11,08,39,17.00
2010,07,11,08,40,17.00
2010,07,11,08,41,17.10
2010,07,11,08,42,17.20
2010,07,11,08,43,17.20
2010,07,11,08,44,17.30
2010,07,11,08,45,17.30
2010,07,11,08,46,17.30
2010,07,11,08,47,17.40
2010,07,11,08,48,17.50
2010,07,11,08,49,17.50
2010,07,11,08,50,17.60
2010,07,11,08,51,17.70
2010,07,11,08,52,17.70
2010,07,11,08,53,17.70
2010,07,11,08,54,17.70
2010,07,11,08,55,17.70
2010,07,11,08,56,17.70
2010,07,11,08,57,17.80
2010,07,11,08,58,17.90
2010,07,11,08,59,17.90
2010,07,11,09,00,17.90
2010,07,11,09,01,18.00
2010,07,11,09,02,18.10
2010,07,11,09,03,18.10
2010,07,11,09,04,18.10
2010,07,11,09,05,18.10
2010,07,11,09,06,18.10
2010,07,11,09,07,18.10
2010,07,11,09,08,18.20
2010,07,11,09,09,18.20
2010,07,11,09,10,18.20
2010,07,11,09,11,18.20
2010,07,11,09,12,18.20
2010,07,11,09,13,18.20
2010,07,11,09,14,18.20
2010,07,11,09,15,18.20
2010,07,11,09,16,18.30
2010,07,11,09,17,18.30
2010,07,11,09,18,18.30
2010,07,11,09,19,18.30
2010,07,11,09,20,18.30
2010,07,11,09,21,18.30
2010,07,11,09,22,18.40
2010,07,11,09,23,18.40
2010,07,11,09,24,18.50
2010,07,11,09,25,18.50
2010,07,11,09,26,18.60
2010,07,11,09,27,18.60
2010,07,11,09,28,18.50
2010,07,11,09,29,18.40
2010,07,11,09,30,18.40
2010,07,11,09,31,18.40
2010,07,11,09,32,18.30
2010,07,11,09,33,18.40
2010,07,11,09,34,18.50
2010,07,11,09,35,18.50
2010,07,11,09,36,18.60
2010,07,11,09,37,18.70
2010,07,11,09,38,18.80
2010,07,11,09,39,18.90
2010,07,11,09,40,18.90
2010,07,11,09,41,18.80
2010,07,11,09,42,18.80
2010,07,11,09,43,18.80
2010,07,11,09,44,18.70
2010,07,11,09,45,18.60
2010,07,11,09,46,18.60
2010,07,11,09,47,18.60
2010,07,11,09,48,18.60
2010,07,11,09,49,18.60
2010,07,11,09,50,18.60
2010,07,11,09,51,18.70
2010,07,11,09,52,18.70
2010,07,11,09,53,18.70
2010,07,11,09,54,18.70
2010,07,11,09,55,18.70
2010,07,11,09,56,18.70
2010,07,11,09,57,18.80
2010,07,11,09,58,18.90
2010,07,11,09,59,18.90
2010,07,11,10,00,19.00
2010,07,11,10,01,19.10
2010,07,11,10,02,19.10
2010,07,11,10,03,19.10
2010,07,11,10,04,19.10
2010,07,11,10,05,19.10
2010,07,11,10,06,19.20
2010,07,11,10,07,19.20
2010,07,11,10,08,19.10
2010,07,11,10,09,19.10
2010,07,11,10,10,19.20
2010,07,11,10,11,19.20
2010,07,11,10,12,19.30
2010,07,11,10,13,19.30
2010,07,11,10,14,19.40
2010,07,11,10,15,19.40
2010,07,11,10,16,19.50
2010,07,11,10,17,19.50
2010,07,11,10,18,19.60
2010,07,11,10,19,19.60
2010,07,11,10,20,19.70
2010,07,11,10,21,19.80
2010,07,11,10,22,19.80
2010,07,11,10,23,19.90
2010,07,11,10,24,19.90
2010,07,11,10,25,19.90
2010,07,11,10,26,19.90
2010,07,11,10,27,19.90
2010,07,11,10,28,19.90
2010,07,11,10,29,19.90
2010,07,11,10,30,19.90
2010,07,11,10,31,19.90
2010,07,11,10,32,19.90
2010,07,11,10,33,19.90
2010,07,11,10,34,19.90
2010,07,11,10,35,19.90
2010,07,11,10,36,19.90
2010,07,11,10,37,19.80
2010,07,11,10,38,19.90
2010,07,11,10,39,19.90
2010,07,11,10,40,19.90
2010,07,11,10,41,19.90
2010,07,11,10,42,19.90
2010,07,11,10,43,20.00
2010,07,11,10,44,20.10
2010,07,11,10,45,20.20
2010,07,11,10,46,20.20
2010,07,11,10,47,20.20
2010,07,11,10,48,20.30
2010,07,11,10,49,20.30
2010,07,11,10,50,20.30
2010,07,11,10,51,20.30
2010,07,11,10,52,20.40
2010,07,11,10,53,20.50
2010,07,11,10,54,20.50
2010,07,11,10,55,20.60
2010,07,11,10,56,20.70
2010,07,11,10,57,20.70
2010,07,11,10,58,20.70
2010,07,11,10,59,20.70
2010,07,11,11,00,20.70
2010,07,11,11,01,20.70
2010,07,11,11,02,20.70
2010,07,11,11,03,20.70
2010,07,11,11,04,20.70
2010,07,11,11,05,20.70
2010,07,11,11,06,20.60
2010,07,11,11,07,20.70
2010,07,11,11,08,20.60
2010,07,11,11,09,20.60
2010,07,11,11,10,20.60
2010,07,11,11,11,20.70
2010,07,11,11,12,20.80
2010,07,11,11,13,20.80
2010,07,11,11,14,20.80
2010,07,11,11,15,20.60
2010,07,11,11,16,20.60
2010,07,11,11,17,20.50
2010,07,11,11,18,20.60
2010,07,11,11,19,20.60
2010,07,11,11,20,20.60
2010,07,11,11,21,20.60
2010,07,11,11,22,20.70
2010,07,11,11,23,20.80
2010,07,11,11,24,20.80
2010,07,11,11,25,21.00
2010,07,11,11,26,21.00
2010,07,11,11,27,20.90
2010,07,11,11,28,20.80
2010,07,11,11,29,20.60
2010,07,11,11,30,20.50
2010,07,11,11,31,20.50
2010,07,11,11,32,20.50
2010,07,11,11,33,20.50
2010,07,11,11,34,20.60
2010,07,11,11,35,20.60
2010,07,11,11,36,20.60
2010,07,11,11,37,20.50
2010,07,11,11,38,20.50
2010,07,11,11,39,20.50
2010,07,11,11,40,20.40
2010,07,11,11,41,20.40
2010,07,11,11,42,20.40
2010,07,11,11,43,20.50
2010,07,11,11,44,20.40
2010,07,11,11,45,20.40
2010,07,11,11,46,20.40
2010,07,11,11,47,20.40
2010,07,11,11,48,20.40
2010,07,11,11,49,20.40
2010,07,11,11,50,20.30
2010,07,11,11,51,20.30
2010,07,11,11,52,20.20
2010,07,11,11,53,20.20
2010,07,11,11,54,20.20
2010,07,11,11,55,20.10
2010,07,11,11,56,20.00
2010,07,11,11,57,19.90
2010,07,11,11,58,19.90
2010,07,11,11,59,19.90
2010,07,11,12,00,19.80
2010,07,11,12,01,19.90
2010,07,11,12,02,19.90
2010,07,11,12,03,19.90
2010,07,11,12,04,19.90
2010,07,11,12,05,20.00
2010,07,11,12,06,20.10
2010,07,11,12,07,20.20
2010,07,11,12,08,20.20
2010,07,11,12,09,20.30
2010,07,11,12,10,20.30
2010,07,11,12,11,20.30
2010,07,11,12,12,20.20
2010,07,11,12,13,20.20
2010,07,11,12,14,20.20
2010,07,11,12,15,20.20
2010,07,11,12,16,20.20
2010,07,11,12,17,20.20
2010,07,11,12,18,20.20
2010,07,11,12,19,20.20
2010,07,11,12,20,20.20
2010,07,11,12,21,20.20
2010,07,11,12,22,20.20
2010,07,11,12,23,20.30
2010,07,11,12,24,20.30
2010,07,11,12,25,20.40
2010,07,11,12,26,20.40
2010,07,11,12,27,20.50
2010,07,11,12,28,20.50
2010,07,11,12,29,20.60
2010,07,11,12,30,20.70
2010,07,11,12,31,20.80
2010,07,11,12,32,20.80
2010,07,11,12,33,20.80
2010,07,11,12,34,20.80
2010,07,11,12,35,20.80
2010,07,11,12,36,20.90
2010,07,11,12,37,20.80
2010,07,11,12,38,20.80
2010,07,11,12,39,20.80
2010,07,11,12,40,20.70
2010,07,11,12,41,20.70
2010,07,11,12,42,20.60
2010,07,11,12,43,20.50
2010,07,11,12,44,20.40
2010,07,11,12,45,20.50
2010,07,11,12,46,20.50
2010,07,11,12,47,20.50
2010,07,11,12,48,20.60
2010,07,11,12,49,20.60
2010,07,11,12,50,20.60
2010,07,11,12,51,20.60
2010,07,11,12,52,20.70
2010,07,11,12,53,20.60
2010,07,11,12,54,20.60
2010,07,11,12,55,20.50
2010,07,11,12,56,20.50
2010,07,11,12,57,20.60
2010,07,11,12,58,20.60
2010,07,11,12,59,20.60
2010,07,11,13,00,20.50
2010,07,11,13,01,20.40
2010,07,11,13,02,20.40
2010,07,11,13,03,20.30
2010,07,11,13,04,20.40
2010,07,11,13,05,20.40
2010,07,11,13,06,20.40
2010,07,11,13,07,20.40
2010,07,11,13,08,20.50
2010,07,11,13,09,20.50
2010,07,11,13,10,20.30
2010,07,11,13,11,20.30
2010,07,11,13,12,20.40
2010,07,11,13,13,20.40
2010,07,11,13,14,20.30
2010,07,11,13,15,20.20
2010,07,11,13,16,20.20
2010,07,11,13,17,20.20
2010,07,11,13,18,20.20
2010,07,11,13,19,20.20
2010,07,11,13,20,20.20
2010,07,11,13,21,20.10
2010,07,11,13,22,20.00
2010,07,11,13,23,19.90
2010,07,11,13,24,19.80
2010,07,11,13,25,19.70
2010,07,11,13,26,19.60
2010,07,11,13,27,19.50
2010,07,11,13,28,19.40
2010,07,11,13,29,19.40
2010,07,11,13,30,19.40
2010,07,11,13,31,19.40
2010,07,11,13,32,19.40
2010,07,11,13,33,19.40
2010,07,11,13,34,19.50
2010,07,11,13,35,19.60
2010,07,11,13,36,19.60
2010,07,11,13,37,19.60
2010,07,11,13,38,19.70
2010,07,11,13,39,19.70
2010,07,11,13,40,19.80
2010,07,11,13,41,19.70
2010,07,11,13,42,19.70
2010,07,11,13,43,19.70
2010,07,11,13,44,19.70
2010,07,11,13,45,19.80
2010,07,11,13,46,19.90
2010,07,11,13,47,19.70
2010,07,11,13,48,19.70
2010,07,11,13,49,19.70
2010,07,11,13,50,19.70
2010,07,11,13,51,19.70
2010,07,11,13,52,19.60
2010,07,11,13,53,19.50
2010,07,11,13,54,19.50
2010,07,11,13,55,19.50
2010,07,11,13,56,19.60
2010,07,11,13,57,19.60
2010,07,11,13,58,19.70
2010,07,11,13,59,19.70
2010,07,11,14,00,19.80
2010,07,11,14,01,19.90
2010,07,11,14,02,19.90
2010,07,11,14,03,19.90
2010,07,11,14,04,19.90
2010,07,11,14,05,19.90
2010,07,11,14,06,20.10
2010,07,11,14,07,20.10
2010,07,11,14,08,20.10
2010,07,11,14,09,20.20
2010,07,11,14,10,20.20
2010,07,11,14,11,20.20
2010,07,11,14,12,20.20
2010,07,11,14,13,20.20
2010,07,11,14,14,20.20
2010,07,11,14,15,20.20
2010,07,11,14,16,20.20
2010,07,11,14,17,20.20
2010,07,11,14,18,20.10
2010,07,11,14,19,20.10
2010,07,11,14,20,20.10
2010,07,11,14,21,20.10
2010,07,11,14,22,20.10
2010,07,11,14,23,20.10
2010,07,11,14,24,20.20
2010,07,11,14,25,20.20
2010,07,11,14,26,20.20
2010,07,11,14,27,20.20
2010,07,11,14,28,20.20
2010,07,11,14,29,20.20
2010,07,11,14,30,20.10
2010,07,11,14,31,20.10
2010,07,11,14,32,20.00
2010,07,11,14,33,20.10
2010,07,11,14,34,20.10
2010,07,11,14,35,20.10
2010,07,11,14,36,20.10
2010,07,11,14,37,20.20
2010,07,11,14,38,20.20
2010,07,11,14,39,20.10
2010,07,11,14,40,20.00
2010,07,11,14,41,19.90
2010,07,11,14,42,19.80
2010,07,11,14,43,19.80
2010,07,11,14,44,19.70
2010,07,11,14,45,19.70
2010,07,11,14,46,19.70
2010,07,11,14,47,19.70
2010,07,11,14,48,19.70
2010,07,11,14,49,19.70
2010,07,11,14,50,19.70
2010,07,11,14,51,19.70
2010,07,11,14,52,19.70
2010,07,11,14,53,19.60
2010,07,11,14,54,19.50
2010,07,11,14,55,19.50
2010,07,11,14,56,19.50
2010,07,11,14,57,19.40
2010,07,11,14,58,19.40
2010,07,11,14,59,19.30
2010,07,11,15,00,19.20
2010,07,11,15,01,19.20
2010,07,11,15,02,19.20
2010,07,11,15,03,19.10
2010,07,11,15,04,19.10
2010,07,11,15,05,19.10
2010,07,11,15,06,19.10
2010,07,11,15,07,19.00
2010,07,11,15,08,18.90
2010,07,11,15,09,18.90
2010,07,11,15,10,18.90
2010,07,11,15,11,18.80
2010,07,11,15,12,18.80
2010,07,11,15,13,18.70
2010,07,11,15,14,18.70
2010,07,11,15,15,18.70
2010,07,11,15,16,18.60
2010,07,11,15,17,18.60
2010,07,11,15,18,18.50
2010,07,11,15,19,18.40
2010,07,11,15,20,18.30
2010,07,11,15,21,18.30
2010,07,11,15,22,18.30
2010,07,11,15,23,18.40
2010,07,11,15,24,18.40
2010,07,11,15,25,18.40
2010,07,11,15,26,18.30
2010,07,11,15,27,18.30
2010,07,11,15,28,18.20
2010,07,11,15,29,18.20
2010,07,11,15,30,18.20
2010,07,11,15,31,18.20
2010,07,11,15,32,18.20
2010,07,11,15,33,18.20
2010,07,11,15,34,18.20
2010,07,11,15,35,18.20
2010,07,11,15,36,18.20
2010,07,11,15,37,18.30
2010,07,11,15,38,18.30
2010,07,11,15,39,18.20
2010,07,11,15,40,18.20
2010,07,11,15,41,18.20
2010,07,11,15,42,18.20
2010,07,11,15,43,18.10
2010,07,11,15,44,18.10
2010,07,11,15,45,18.20
2010,07,11,15,46,18.20
2010,07,11,15,47,18.20
2010,07,11,15,48,18.20
2010,07,11,15,49,18.20
2010,07,11,15,50,18.20
2010,07,11,15,51,18.20
2010,07,11,15,52,18.20
2010,07,11,15,53,18.20
2010,07,11,15,54,18.20
2010,07,11,15,55,18.20
2010,07,11,15,56,18.20
2010,07,11,15,57,18.10
2010,07,11,15,58,18.20
2010,07,11,15,59,18.10
2010,07,11,16,00,18.10
2010,07,11,16,01,18.20
2010,07,11,16,02,18.20
2010,07,11,16,03,18.20
2010,07,11,16,04,18.20
2010,07,11,16,05,18.10
2010,07,11,16,06,18.10
2010,07,11,16,07,18.10
2010,07,11,16,08,18.10
2010,07,11,16,09,18.10
2010,07,11,16,10,18.00
2010,07,11,16,11,18.10
2010,07,11,16,12,18.10
2010,07,11,16,13,18.10
2010,07,11,16,14,18.10
2010,07,11,16,15,18.20
2010,07,11,16,16,18.10
2010,07,11,16,17,18.10
2010,07,11,16,18,18.10
2010,07,11,16,19,18.20
2010,07,11,16,20,18.10
2010,07,11,16,21,18.00
2010,07,11,16,22,17.90
2010,07,11,16,23,17.90
2010,07,11,16,24,17.90
2010,07,11,16,25,17.90
2010,07,11,16,26,17.90
2010,07,11,16,27,17.90
2010,07,11,16,28,17.90
2010,07,11,16,29,17.90
2010,07,11,16,30,17.90
2010,07,11,16,31,17.90
2010,07,11,16,32,17.80
2010,07,11,16,33,17.80
2010,07,11,16,34,17.80
2010,07,11,16,35,17.80
2010,07,11,16,36,17.80
2010,07,11,16,37,17.70
2010,07,11,16,38,17.70
2010,07,11,16,39,17.60
2010,07,11,16,40,17.60
2010,07,11,16,41,17.60
2010,07,11,16,42,17.60
2010,07,11,16,43,17.70
2010,07,11,16,44,17.70
2010,07,11,16,45,17.80
2010,07,11,16,46,17.80
2010,07,11,16,47,17.80
2010,07,11,16,48,17.80
2010,07,11,16,49,17.80
2010,07,11,16,50,17.80
2010,07,11,16,51,17.80
2010,07,11,16,52,17.80
2010,07,11,16,53,17.80
2010,07,11,16,54,17.80
2010,07,11,16,55,17.80
2010,07,11,16,56,17.70
2010,07,11,16,57,17.70
2010,07,11,16,58,17.70
2010,07,11,16,59,17.70
2010,07,11,17,00,17.60
2010,07,11,17,01,17.60
2010,07,11,17,02,17.50
2010,07,11,17,03,17.40
2010,07,11,17,04,17.30
2010,07,11,17,05,17.30
2010,07,11,17,06,17.30
2010,07,11,17,07,17.30
2010,07,11,17,08,17.30
2010,07,11,17,09,17.20
2010,07,11,17,10,17.20
2010,07,11,17,11,17.20
2010,07,11,17,12,17.20
2010,07,11,17,13,17.20
2010,07,11,17,14,17.20
2010,07,11,17,15,17.10
2010,07,11,17,16,17.00
2010,07,11,17,17,16.90
2010,07,11,17,18,16.80
2010,07,11,17,19,16.70